When you browse on this site, cookies collect data to enhance your experience and personalize the content and advertising you see.
Visit our Privacy Policy to learn more. By continuing to use the site, you agree to this use of cookies and data.
  • En España
  • Lista de países
  • Para 7 días
  • Temperatura del agua
  • El tiempo en el mapa
  • Informadores
  • user-avatar
    Iniciar sesión

    Tiempo cada hora Kurnyky

    Hoy, 17 Octubre, Jueves

    Tiempo Temperatura Precipitaciones Viento Presión Humedad
    00:00 +13°C° 0 mm 2 mps 734 mmHg 73%
    01:00 +12°C° 0 mm 2 mps 735 mmHg 74%
    02:00 +12°C° 0 mm 1 mps 735 mmHg 74%
    03:00 +12°C° 0 mm 2 mps 735 mmHg 77%
    04:00 +12°C° 0 mm 2 mps 735 mmHg 79%
    05:00 +10°C° 0 mm 2 mps 735 mmHg 82%
    06:00 +12°C° 0 mm 2 mps 735 mmHg 84%
    07:00 +12°C° 0 mm 2 mps 735 mmHg 85%
    08:00 +13°C° 0 mm 1 mps 736 mmHg 85%
    09:00 +14°C° 0 mm 1 mps 736 mmHg 78%
    10:00 +16°C° 0 mm 1 mps 737 mmHg 72%
    11:00 +19°C° 0 mm 1 mps 737 mmHg 65%
    12:00 +19°C° 0 mm 1 mps 737 mmHg 62%
    13:00 +20°C° 0 mm 1 mps 736 mmHg 59%
    14:00 +21°C° 0 mm 1 mps 736 mmHg 56%
    15:00 +20°C° 0 mm 1 mps 736 mmHg 59%
    16:00 +19°C° 0 mm 1 mps 736 mmHg 63%
    17:00 +16°C° 0 mm 0 mps 736 mmHg 67%
    18:00 +15°C° 0 mm 0 mps 736 mmHg 71%
    19:00 +14°C° 0 mm 0 mps 736 mmHg 74%
    20:00 +13°C° 0 mm 0 mps 736 mmHg 77%
    21:00 +14°C° 0 mm 1 mps 736 mmHg 79%
    22:00 +14°C° 0 mm 1 mps 736 mmHg 80%
    23:00 +13°C° 0 mm 1 mps 736 mmHg 81%

    Mañana, 18 Octubre, Viernes

    Tiempo Temperatura Precipitaciones Viento Presión Humedad
    00:00 +13°C° 0 mm 1 mps 736 mmHg 83%
    01:00 +13°C° 0 mm 1 mps 736 mmHg 85%
    02:00 +13°C° 0 mm 1 mps 736 mmHg 86%
    03:00 +12°C° 0 mm 2 mps 736 mmHg 87%
    04:00 +12°C° 0 mm 2 mps 736 mmHg 87%
    05:00 +12°C° 0 mm 2 mps 735 mmHg 87%
    06:00 +12°C° 0 mm 2 mps 735 mmHg 85%
    07:00 +13°C° 0 mm 2 mps 736 mmHg 82%
    08:00 +13°C° 0 mm 2 mps 736 mmHg 80%
    09:00 +15°C° 0 mm 2 mps 736 mmHg 72%
    10:00 +17°C° 0 mm 3 mps 736 mmHg 64%
    11:00 +19°C° 0 mm 3 mps 736 mmHg 56%
    12:00 +20°C° 0 mm 3 mps 735 mmHg 53%
    13:00 +21°C° 0 mm 3 mps 735 mmHg 51%
    14:00 +21°C° 0 mm 3 mps 735 mmHg 48%
    15:00 +20°C° 0 mm 3 mps 735 mmHg 51%
    16:00 +19°C° 0 mm 3 mps 734 mmHg 55%
    17:00 +18°C° 0 mm 2 mps 734 mmHg 59%
    18:00 +17°C° 0 mm 2 mps 734 mmHg 59%
    19:00 +16°C° 0 mm 3 mps 734 mmHg 59%
    20:00 +14°C° 0 mm 3 mps 734 mmHg 59%
    21:00 +14°C° 0 mm 3 mps 734 mmHg 59%
    22:00 +13°C° 0 mm 3 mps 734 mmHg 59%
    23:00 +13°C° 0 mm 3 mps 734 mmHg 58%

    Pasado mañana, 19 Octubre, Sábado

    Tiempo Temperatura Precipitaciones Viento Presión Humedad
    00:00 +13°C° 0 mm 3 mps 734 mmHg 60%
    01:00 +12°C° 0 mm 3 mps 734 mmHg 61%
    02:00 +12°C° 0 mm 3 mps 734 mmHg 63%
    03:00 +12°C° 0 mm 3 mps 734 mmHg 65%
    04:00 +11°C° 0 mm 3 mps 734 mmHg 67%
    05:00 +11°C° 0 mm 3 mps 734 mmHg 69%
    06:00 +11°C° 0 mm 3 mps 734 mmHg 69%
    07:00 +12°C° 0 mm 3 mps 734 mmHg 70%
    08:00 +12°C° 0 mm 3 mps 734 mmHg 71%
    09:00 +14°C° 0 mm 3 mps 735 mmHg 65%
    10:00 +17°C° 0 mm 3 mps 735 mmHg 59%
    11:00 +19°C° 0 mm 3 mps 735 mmHg 54%
    12:00 +20°C° 0 mm 3 mps 735 mmHg 51%
    13:00 +21°C° 0 mm 3 mps 735 mmHg 49%
    14:00 +22°C° 0 mm 3 mps 735 mmHg 46%
    15:00 +21°C° 0 mm 2 mps 735 mmHg 50%
    16:00 +20°C° 0 mm 2 mps 734 mmHg 55%
    17:00 +19°C° 0 mm 2 mps 734 mmHg 59%
    18:00 +18°C° 0 mm 2 mps 734 mmHg 62%
    19:00 +17°C° 0 mm 3 mps 734 mmHg 64%
    20:00 +16°C° 0 mm 3 mps 735 mmHg 66%
    21:00 +14°C° 0 mm 3 mps 735 mmHg 66%
    22:00 +14°C° 0 mm 3 mps 735 mmHg 66%
    23:00 +14°C° 0 mm 3 mps 735 mmHg 66%

    20 Octubre, Domingo

    Tiempo Temperatura Precipitaciones Viento Presión Humedad
    00:00 +13°C° 0 mm 3 mps 735 mmHg 66%
    01:00 +13°C° 0 mm 3 mps 735 mmHg 67%
    02:00 +13°C° 0 mm 3 mps 735 mmHg 68%
    03:00 +12°C° 0 mm 3 mps 735 mmHg 69%
    04:00 +12°C° 0 mm 3 mps 735 mmHg 71%
    05:00 +12°C° 0 mm 3 mps 735 mmHg 72%
    06:00 +12°C° 0 mm 3 mps 735 mmHg 72%
    07:00 +13°C° 0 mm 3 mps 735 mmHg 71%
    08:00 +13°C° 0 mm 3 mps 735 mmHg 71%
    09:00 +16°C° 0 mm 3 mps 735 mmHg 64%
    10:00 +18°C° 0 mm 3 mps 736 mmHg 57%
    11:00 +21°C° 0 mm 3 mps 736 mmHg 50%
    12:00 +21°C° 0 mm 3 mps 736 mmHg 48%
    13:00 +22°C° 0 mm 3 mps 736 mmHg 45%
    14:00 +24°C° 0 mm 3 mps 736 mmHg 43%
    15:00 +22°C° 0 mm 3 mps 735 mmHg 47%
    16:00 +21°C° 0 mm 3 mps 735 mmHg 52%
    17:00 +19°C° 0 mm 2 mps 735 mmHg 56%
    18:00 +18°C° 0 mm 3 mps 735 mmHg 58%
    19:00 +17°C° 0 mm 3 mps 735 mmHg 61%
    20:00 +15°C° 0 mm 4 mps 736 mmHg 63%
    21:00 +16°C° 0 mm 3 mps 736 mmHg 64%
    22:00 +16°C° 0 mm 3 mps 736 mmHg 66%
    23:00 +14°C° 0 mm 3 mps 736 mmHg 67%

    21 Octubre, Lunes

    Tiempo Temperatura Precipitaciones Viento Presión Humedad
    00:00 +14°C° 0 mm 3 mps 736 mmHg 68%
    01:00 +13°C° 0 mm 3 mps 736 mmHg 69%
    02:00 +13°C° 0 mm 3 mps 735 mmHg 71%
    03:00 +13°C° 0 mm 3 mps 735 mmHg 71%
    04:00 +13°C° 0 mm 3 mps 735 mmHg 72%
    05:00 +12°C° 0 mm 3 mps 735 mmHg 73%
    06:00 +13°C° 0 mm 3 mps 735 mmHg 72%
    07:00 +13°C° 0 mm 3 mps 735 mmHg 71%
    08:00 +13°C° 0 mm 3 mps 735 mmHg 70%
    09:00 +15°C° 0 mm 4 mps 735 mmHg 64%
    10:00 +18°C° 0 mm 4 mps 735 mmHg 57%
    11:00 +20°C° 0 mm 4 mps 736 mmHg 50%
    12:00 +21°C° 0 mm 4 mps 735 mmHg 48%
    13:00 +22°C° 0 mm 5 mps 735 mmHg 46%
    14:00 +23°C° 0 mm 5 mps 735 mmHg 43%
    15:00 +22°C° 0 mm 4 mps 735 mmHg 47%
    16:00 +21°C° 0 mm 4 mps 734 mmHg 51%
    17:00 +19°C° 0 mm 3 mps 734 mmHg 55%
    18:00 +19°C° 0 mm 3 mps 734 mmHg 57%
    19:00 +18°C° 0 mm 3 mps 735 mmHg 58%
    20:00 +17°C° 0 mm 3 mps 735 mmHg 59%
    21:00 +17°C° 0 mm 3 mps 735 mmHg 60%
    22:00 +16°C° 0 mm 2 mps 735 mmHg 60%
    23:00 +16°C° 0 mm 2 mps 735 mmHg 60%

    22 Octubre, Martes

    Tiempo Temperatura Precipitaciones Viento Presión Humedad
    00:00 +16°C° 0 mm 2 mps 735 mmHg 61%
    01:00 +16°C° 0 mm 2 mps 735 mmHg 62%
    02:00 +16°C° 0 mm 2 mps 735 mmHg 63%
    03:00 +14°C° 0 mm 3 mps 736 mmHg 65%
    04:00 +14°C° 0 mm 3 mps 736 mmHg 67%
    05:00 +13°C° 0 mm 3 mps 736 mmHg 69%
    06:00 +13°C° 0 mm 3 mps 736 mmHg 73%
    07:00 +13°C° 0 mm 3 mps 737 mmHg 77%
    08:00 +13°C° 0 mm 3 mps 737 mmHg 81%
    09:00 +14°C° 0 mm 4 mps 737 mmHg 77%
    10:00 +15°C° 0 mm 5 mps 738 mmHg 74%
    11:00 +17°C° 0 mm 5 mps 738 mmHg 70%
    12:00 +17°C° 0 mm 5 mps 738 mmHg 67%
    13:00 +19°C° 0 mm 5 mps 738 mmHg 65%
    14:00 +19°C° 0 mm 5 mps 739 mmHg 62%
    15:00 +17°C° 0 mm 5 mps 739 mmHg 66%
    16:00 +17°C° 0 mm 4 mps 739 mmHg 71%
    17:00 +14°C° 0 mm 3 mps 739 mmHg 75%
    18:00 +13°C° 0 mm 3 mps 739 mmHg 79%
    19:00 +12°C° 0 mm 3 mps 739 mmHg 83%
    20:00 +11°C° 0 mm 3 mps 740 mmHg 87%
    21:00 +10°C° 0 mm 3 mps 740 mmHg 88%
    22:00 +10°C° 0 mm 2 mps 740 mmHg 90%
    23:00 +9°C° 0 mm 2 mps 740 mmHg 91%
    Mostrar más